If you wish to contribute or participate in the discussions about articles you are invited to join SKYbrary as a registered user

 Actions

La Roche-sur-Yon Airport

From SKYbrary Wiki

LFRI /
Revision as of 20:13, 16 February 2015 by Timo.Kouwenhoven (talk | contribs) (LF Airports CSV import)
(diff) ← Older revision | Latest revision (diff) | Newer revision → (diff)
Airport
ICAO: LFRI – IATA: EDM
Summary
Name La Roche-sur-Yon Airport
Region Europe
Territory France FR.gif
Location , Pays de la Loire
Serving La Roche-sur-yon
Elevation 91.135 m
299 ft
299 ft91.135 m
Type medium airport
Coordinates 46° 42' 7.00" N, 1° 22' 43.05" W
Runways
Designator Length Width Surface ROPS
10/28 1550 m5,085.302 ft
30 m98.425 ft
ASP /


METAR
Observation LFRI 221900Z AUTO 04011KT CAVOK 04/M00 Q1027 NOSIG
Station La Roche-Sur-Yon
Date/Time 22 January 2020 19:00:00
Wind direction 40°
Wind speed 11 kts
Lowest cloud amount clouds and visibility OK
Temperature 4°C
Dew point
Humidity 75%
QNH 1027 hPa
Weather condition n/a